Regional Weather Roundup
Issued by NWS Goodland, KS

Home | Current Version | Previous Version | Text Only | Print | Product List | Glossary Off
Versions: 1 2 3 4 5 6 7 8 9 10 11 12 13 14 15 16 17 18 19 20 21 22 23 24 25 26 27 28 29 30 31 32 33 34 35 36 37 38 39 40 41 42 43 44 45 46 47 48 49 50

808
ASUS43 KGLD 200608
RWRGLD

GOODLAND FORECAST AREA HOURLY WEATHER ROUNDUP
NATIONAL WEATHER SERVICE GOODLAND KS
1200 AM MDT SUN AUG 20 2017

...OFFICIAL OBSERVATIONS...

CITY           SKY/WX    TMP DP  RH WIND       PRES   REMARKS
GOODLAND KS    CLEAR     71  52  50 S14       29.95S
HILL CITY KS   CLEAR     79  64  60 S7        29.89R
IMPERIAL NEB   CLEAR     67  59  75 W8        29.89F
MCCOOK NEB     CLEAR     75  63  66 SW10      29.87R
AKRON CO       PTCLDY    71  44  37 SW6       30.01R
BURLINGTON CO  PTCLDY    72  54  53 SW9       29.99F
LIMON CO       CLOUDY    58  53  84 CALM      30.10S
$$

...UNOFFICIAL OBSERVATIONS...

CITY           SKY/WX    TMP DP  RH WIND       PRES   REMARKS
LENORA KS        N/A     75  32  20 CALM        N/A
NORTON KS      CLEAR     75  55  50 S12       29.87S
TRENTON NEB      N/A     71  32  23 SW5         N/A
KIT CARSON CO    N/A     67  53  61 CALM        N/A
YUMA CO        FAIR      72  41  33 W7        29.96S
$$




USA.gov is the U.S. government's official web portal to all federal, state and local government web resources and services.